Location: Bailleul
(50.3375°N, 2.8513°E)
Time: 17:11:31
(UTC+00:00)

CZ-2C R/B - Pass Details

Date: 19 April 2021
Orbit: 639 x 705 km, 98.3° (Epoch: 07 May)

Event Time Altitude Azimuth Distance (km) Brightness Sun altitude
Rises 20:14:37 0° 19° (NNE) 2,971 7.3 -12.8°
Reaches altitude 10° 20:16:56 10° 27° (NNE) 2,050 6.4 -13.1°
Maximum altitude 20:21:11 43° 99° (E) 909 4.0 -13.6°
Enters shadow 20:24:29 16° 166° (SSE) 1,688 5.3 -14.0°
